Weather History for Alexandroupoli, Greece

Change the Weather History Date:

Tuesday, November 5, 2013

  Actual Average Record
Temperature  
Mean Temperature 63 °F -  
Max Temperature 68 °F 58 °F 71 °F (2010)
Min Temperature 58 °F 43 °F 24 °F (2006)
Degree Days  
Heating Degree Days 2    
Growing Degree Days 13 (Base 50)    
Moisture  
Dew Point 60 °F    
Average Humidity 86    
Maximum Humidity 94    
Minimum Humidity 75    
Precipitation  
Precipitation 0.04 in 0.10 in - ()
Sea Level Pressure  
Sea Level Pressure 29.85 in    
Wind  
Wind Speed 13 mph ()    
Max Wind Speed 22 mph    
Max Gust Speed 25 mph    
Visibility 5.6 miles    
Events Rain    
Averages and records for this station are not official NWS values.
T = Trace of Precipitation, MM = Missing Value Source: Averaged Metar Reports

Daily Weather History Graph

Daily Weather History Graph

Search for Another Location

Airport:

Trip Planner

Search our weather history database for the weather conditions in past years. The results will help you decide how hot, cold, wet, or windy it might be!

Date:

Astronomy

Nov. 05, 2013 Rise Set
Actual Time 6:51 AM EET 5:07 PM EET
Civil Twilight 6:22 AM EET 5:36 PM EET
Nautical Twilight 5:50 AM EET 6:08 PM EET
Astronomical Twilight 5:17 AM EET 6:41 PM EET
Moon 8:46 AM EET (11/5) 6:49 PM EET (11/5)
Length of Visible Light 11h 13m
Length of Day
10h 16m
Waxing Crescent, 5% of the Moon is Illuminated
Nov 5
Waxing Crescent
Nov 10
First Quarter
Nov 17
Full
Nov 25
Last Quarter
Dec 3
New

Hourly Weather History & Observations

Time (EET) Temp. Dew Point Humidity Pressure Visibility Wind Dir Wind Speed Gust Speed Precip Events Conditions
12:20 AM 62.6 °F 55.4 °F 77% 29.98 in 6.2 mi South 11.5 mph - N/A   Scattered Clouds
12:50 AM 62.6 °F 55.4 °F 77% 29.95 in 6.2 mi South 12.7 mph - N/A   Scattered Clouds
1:20 AM 62.6 °F 55.4 °F 77% 29.95 in 6.2 mi South 12.7 mph - N/A   Scattered Clouds
1:50 AM 62.6 °F 55.4 °F 77% 29.95 in 6.2 mi South 13.8 mph - N/A   Scattered Clouds
2:00 AM 62 °F 56 °F 75% 29.96 in 6 mi South 13.8 mph - -   Partly Cloudy
2:20 AM 62.6 °F 55.4 °F 77% 29.95 in 6.2 mi South 13.8 mph - N/A   Scattered Clouds
2:50 AM 62.6 °F 57.2 °F 82% 29.92 in 6.2 mi South 13.8 mph - N/A   Scattered Clouds
3:50 AM 60.8 °F 57.2 °F 88% 29.92 in 6.2 mi South 13.8 mph - N/A   Scattered Clouds
4:20 AM 60.8 °F 57.2 °F 88% 29.92 in 6.2 mi South 16.1 mph - N/A   Scattered Clouds
4:50 AM 60.8 °F 59.0 °F 94% 29.89 in 6.2 mi South 16.1 mph - N/A   Mostly Cloudy
5:20 AM 60.8 °F 59.0 °F 94% 29.89 in 6.2 mi SSE 13.8 mph - N/A   Mostly Cloudy
5:50 AM 60.8 °F 55.4 °F 82% 29.89 in 6.2 mi South 13.8 mph - N/A   Mostly Cloudy
6:20 AM 60.8 °F 55.4 °F 82% 29.89 in 6.2 mi SSE 11.5 mph - N/A   Mostly Cloudy
6:50 AM 59.0 °F 53.6 °F 82% 29.89 in 5.0 mi SSE 10.4 mph - N/A   Mostly Cloudy
7:20 AM 59.0 °F 53.6 °F 82% 29.89 in 5.0 mi SSE 12.7 mph - N/A   Mostly Cloudy
7:50 AM 64.4 °F 59.0 °F 83% 29.89 in 5.0 mi SSE 11.5 mph - N/A   Mostly Cloudy
8:00 AM 65 °F 59 °F 76% 29.90 in 5 mi SSE 11.5 mph - -   Mist
8:20 AM 64.4 °F 59.0 °F 83% 29.89 in 5.0 mi SSE 11.5 mph - N/A   Mostly Cloudy
8:50 AM 64.4 °F 59.0 °F 83% 29.89 in 5.0 mi South 12.7 mph - N/A   Mostly Cloudy
9:20 AM 64.4 °F 59.0 °F 83% 29.89 in 5.0 mi South 12.7 mph - N/A   Mostly Cloudy
10:50 AM 66.2 °F 62.6 °F 88% 29.86 in 5.0 mi South 11.5 mph - N/A   Mostly Cloudy
11:50 AM 64.4 °F 62.6 °F 94% 29.86 in 5.0 mi South 10.4 mph - N/A   Mostly Cloudy
12:20 PM 64.4 °F 62.6 °F 94% 29.86 in 5.0 mi South 10.4 mph - N/A   Mostly Cloudy
12:50 PM 64.4 °F 60.8 °F 88% 29.83 in 5.0 mi South 13.8 mph - N/A   Mostly Cloudy
1:20 PM 64.4 °F 60.8 °F 88% 29.83 in 5.0 mi South 13.8 mph - N/A   Mostly Cloudy
1:50 PM 66.2 °F 64.4 °F 94% 29.83 in 5.0 mi South 13.8 mph - N/A   Mostly Cloudy
2:00 PM 67 °F 65 °F 89% 29.84 in 5 mi South 13.8 mph - -   Mist
2:20 PM 66.2 °F 64.4 °F 94% 29.83 in 5.0 mi South 19.6 mph - N/A   Mostly Cloudy
2:50 PM 68.0 °F 64.4 °F 88% 29.80 in 5.6 mi South 15.0 mph - N/A   Mostly Cloudy
3:20 PM 68.0 °F 64.4 °F 88% 29.80 in 5.6 mi South 16.1 mph - N/A   Mostly Cloudy
3:50 PM 68.0 °F 64.4 °F 88% 29.80 in 5.6 mi South 17.3 mph - N/A   Mostly Cloudy
4:20 PM 66.2 °F 62.6 °F 88% 29.80 in 5.6 mi South 17.3 mph - N/A   Mostly Cloudy
4:50 PM 66.2 °F 62.6 °F 88% 29.80 in 5.6 mi South 16.1 mph - N/A   Mostly Cloudy
5:20 PM 66.2 °F 62.6 °F 88% 29.80 in 5.6 mi South 15.0 mph - N/A   Mostly Cloudy
5:50 PM 64.4 °F 60.8 °F 88% 29.80 in 5.6 mi South 17.3 mph - N/A   Mostly Cloudy
6:50 PM 62.6 °F 60.8 °F 94% 29.80 in 5.0 mi South 18.4 mph - N/A Rain Light Rain
7:20 PM 62.6 °F 60.8 °F 94% 29.80 in 5.0 mi South 17.3 mph - N/A Rain Light Rain
7:50 PM 64.4 °F 62.6 °F 94% 29.80 in 5.0 mi South 17.3 mph - N/A Rain Light Rain
8:00 PM 65 °F 62 °F 88% 29.82 in 5 mi South 17.3 mph - - Rain Light Rain
8:20 PM 64.4 °F 62.6 °F 94% 29.80 in 6.2 mi South 16.1 mph - N/A   Mostly Cloudy
8:50 PM 64.4 °F 60.8 °F 88% 29.80 in 6.2 mi South 13.8 mph - N/A   Scattered Clouds
9:20 PM 64.4 °F 60.8 °F 88% 29.80 in 6.2 mi South 16.1 mph - N/A   Scattered Clouds
9:50 PM 64.4 °F 60.8 °F 88% 29.80 in 6.2 mi South 15.0 mph - N/A   Scattered Clouds
10:20 PM 64.4 °F 60.8 °F 88% 29.80 in 6.2 mi South 13.8 mph 25.3 mph N/A   Scattered Clouds
10:50 PM 66.2 °F 59.0 °F 78% 29.77 in 6.2 mi South 19.6 mph - N/A   Scattered Clouds
11:20 PM 66.2 °F 59.0 °F 78% 29.77 in 6.2 mi South 21.9 mph - N/A   Scattered Clouds
11:50 PM 66.2 °F 59.0 °F 78% 29.77 in 6.2 mi South 19.6 mph - N/A   Scattered Clouds